Location: Bojtostanya
(48.2167°N, 20.8000°E)
Time: 12:49:00
(UTC+00:00)

Daily predictions for brighter satellites

Satellite Brightness Start Highest point End
(mag) Time Altitude Azimuth Time Altitude Azimuth Time Altitude Azimuth
Cosmos 2154 Rocket 4.2 15:12:00 10° N 15:18:23 85° W 15:24:45 10° S
Cosmos 1606 2.9 15:15:21 10° S 15:19:07 51° E 15:22:54 10° NNE
Landsat 5 3.9 15:18:38 10° NNE 15:22:59 49° E 15:27:22 10° S
CZ-4B R/B 3.3 15:23:59 10° ENE 15:25:01 11° E 15:26:03 10° ESE
SMAP 3.3 15:23:32 10° SE 15:27:58 47° ENE 15:32:27 10° N
Sich 1 3.0 15:26:02 10° N 15:30:26 84° E 15:34:46 10° S
Cosmos 482 Debris 2.4 15:29:45 10° WNW 15:31:32 74° SSW 15:33:23 10° ESE
YAOGAN 1 4.5 15:32:32 10° ENE 15:33:30 11° NE 15:34:28 10° NE
Cosmos 1470 Rocket 4.3 15:31:11 10° N 15:35:01 30° ENE 15:38:50 10° SE
Cosmos 1151 Rocket 3.6 15:31:50 10° SSE 15:35:45 36° E 15:39:41 10° NNE
SL-8 Rocket 4.1 15:30:27 10° N 15:36:38 58° ENE 15:42:49 10° SSE
CZ-4C R/B 3.0 15:33:19 10° NNE 15:36:58 71° ESE 15:40:33 10° S
Cosmos 2341 Rocket 4.0 15:31:39 10° N 15:37:58 76° E 15:44:19 10° SSE
Radarsat Rocket 4.2 15:32:35 10° SSE 15:38:48 83° ENE 15:45:50 10° NNW
CZ-2C R/B 4.3 15:38:26 10° E 15:41:33 17° ENE 15:44:36 10° NNE
CZ-4B DEB 4.5 15:36:18 10° S 15:41:46 76° WSW 15:47:16 10° NNW
USA 281 4.1 15:38:05 10° E 15:43:25 27° NE 15:48:45 10° N
Cosmos 2333 Rocket 4.2 15:41:08 10° W 15:45:17 20° NW 15:49:27 10° N
Cosmos 2219 Rocket 4.2 15:43:22 10° W 15:47:34 21° NW 15:51:45 10° N
Cosmos 2285 Rocket 4.0 15:41:53 10° NNW 15:48:21 84° ENE 15:54:41 10° SSE
COSMO-SKYMED 1 4.0 15:45:53 12° NE 15:48:38 19° E 15:51:46 10° SE
USA 81 4.1 15:45:06 10° N 15:50:20 59° E 15:55:33 10° SSE
TELKOM 3 3.3 15:48:07 10° W 15:50:56 56° N 15:52:24 21° ENE
CORIOLIS 4.1 15:46:56 10° SSE 15:52:19 69° ENE 15:57:45 10° N
USA 267 3.7 15:46:49 11° E 15:52:39 45° N 15:58:47 10° WNW
X-37B 2.1 15:52:19 10° SW 15:55:04 27° SSE 15:57:12 14° ESE
H-2A R/B 3.4 15:54:40 13° E 15:56:54 17° ENE 16:00:09 10° NNE
Helios 1A Rocket 4.3 15:57:11 17° ENE 15:57:40 17° ENE 16:00:21 10° NNE
Meteor 1-4 Rocket 2.9 15:56:55 10° SSE 16:00:18 41° E 16:03:14 13° NNE
Cosmos 1812 4.4 15:59:43 10° SE 16:01:27 16° E 16:01:27 16° E
Meteor 1-20 Rocket 4.3 15:56:32 10° NNW 16:02:26 88° WSW 16:08:15 10° S
Cosmos 44 Rocket 4.1 15:57:44 10° NNW 16:02:28 35° NE 16:06:21 14° E
Cosmos 1328 Rocket 3.5 15:59:09 10° S 16:03:25 63° E 16:07:43 10° NNE
Cosmos 2181 Rocket 4.0 15:57:11 10° S 16:03:35 75° E 16:09:55 10° NNE
Cosmos 1939 Rocket 3.3 16:00:09 10° SE 16:03:43 35° ENE 16:07:20 10° N
Cosmos 1933 Rocket 3.9 16:00:55 10° N 16:05:11 41° ENE 16:09:24 10° SE
CZ-4 R/B 2.6 16:05:25 20° ENE 16:05:59 21° ENE 16:09:03 10° NNE
Cosmos 1666 Rocket 4.0 16:01:52 10° NNW 16:06:16 66° W 16:10:39 10° S
Cosmos 389 Rocket 3.9 16:03:22 10° SW 16:06:34 36° WNW 16:09:45 10° N
Cosmos 2237 Rocket 3.6 16:02:11 10° WSW 16:07:17 34° NW 16:12:26 10° NNE
NOAA 11 4.1 16:02:39 10° SSE 16:08:03 72° ENE 16:13:30 10° N
CZ-4B R/B 3.3 16:03:56 10° S 16:09:14 75° WSW 16:14:34 10° NNW
Cosmos 1602 3.6 16:05:53 10° N 16:09:48 67° ENE 16:13:39 10° SSE
CZ-3B R/B 3.2 16:09:55 10° S 16:11:11 12° SE 16:11:29 12° SE
Meteor 1-26 Rocket 4.3 16:05:39 10° S 16:11:37 69° E 16:17:35 10° NNE
Cosmos 1603 4.3 16:06:46 10° S 16:11:48 35° ESE 16:15:01 19° NE
H-2A R/B 3.9 16:08:13 10° S 16:12:13 41° W 16:16:07 10° NNW
Cosmos 1943 3.9 16:10:17 10° SSE 16:15:16 33° ESE 16:18:07 21° ENE
Cosmos 2369 Rocket 2.1 16:10:16 10° NNW 16:15:59 73° ENE 16:21:37 10° SE
ADEOS Rocket 4.2 16:08:44 10° N 16:16:17 58° WNW 16:23:46 10° SW
Cosmos 1943 Rocket 2.4 16:11:57 10° NNW 16:17:31 73° WSW 16:23:04 10° SSE
Meteor 1-14 Rocket 4.3 16:11:49 10° N 16:17:47 68° ENE 16:23:44 10° SSE
Cosmos 1538 Rocket 4.1 16:13:35 10° S 16:18:51 60° ESE 16:23:21 14° NNE
CENTAUR R/B 3.8 16:16:00 10° SSE 16:19:58 19° ESE 16:20:30 19° E
H-2A R/B 2.6 16:16:41 10° N 16:20:49 59° WNW 16:25:02 10° SSW
CZ-2D R/B 3.7 16:17:34 10° SE 16:21:08 38° ENE 16:24:44 10° N
Okean O Rocket 2.3 16:21:29 10° S 16:25:46 56° W 16:30:07 10° NNW
ARGOS 4.3 16:27:01 23° NE 16:27:01 23° NE 16:30:36 10° N
SL-08 R/B 4.4 16:20:25 10° N 16:26:34 69° E 16:32:38 10° SSE
Cosmos 1782 2.7 16:23:17 10° S 16:27:15 81° E 16:31:08 11° NNE
Okean-O 3.1 16:23:16 10° SE 16:27:19 36° ENE 16:31:22 10° N
Cosmos 2056 Rocket 4.4 16:24:20 10° N 16:28:48 27° NE 16:29:06 26° ENE
Cosmos 1633 Rocket 4.3 16:26:17 10° NNW 16:30:26 44° W 16:34:34 10° SSW
DEBRIS 4.3 16:15:15 10° W 16:31:28 85° N 16:34:05 28° E
ISS -3.4 16:29:12 10° WNW 16:32:29 48° N 16:32:58 44° NE
Cosmos 2218 Rocket 4.4 16:30:50 10° NNW 16:36:54 64° W 16:42:58 10° S
SKYMED 2 3.6 16:34:31 23° NNE 16:37:01 56° E 16:41:17 10° S
Cosmos 2366 rocket 4.4 16:31:46 10° NNW 16:37:53 65° W 16:43:56 10° S
ERS-2 2.0 16:36:10 28° NNE 16:38:00 76° ESE 16:41:40 10° S
Cosmos 1869 Rocket 3.9 16:35:39 10° N 16:39:55 40° ENE 16:40:22 39° E
Meteor 1-10 Rocket 4.4 16:38:17 10° SSE 16:43:36 45° E 16:46:16 26° NE
Cosmos 489 Rocket 4.5 16:37:48 10° SSW 16:44:01 85° WNW 16:49:47 13° NNE
Lacrosse 5 rocket 2.1 16:46:20 10° W 16:49:39 33° NNW 16:50:15 31° N
Cosmos 371 Rocket 3.8 16:45:10 10° N 16:49:18 38° NE 16:49:18 38° NE
SL-23 DEB 4.2 16:47:03 10° WSW 16:50:52 78° SSE 16:52:38 42° ENE
NOSS 3-2 (A) 3.6 16:47:05 10° SSW 16:52:27 47° ESE 16:54:01 39° E
CZ-4B R/B 2.3 16:56:26 30° NNW 16:57:29 43° WNW 17:00:30 10° SW
Cosmos 2239 Rocket 4.3 16:52:49 10° N 16:59:00 71° E 17:05:12 10° SSE
SL-16 R/B 3.5 16:55:14 10° WSW 17:00:24 35° NW 17:05:04 12° NNE
USA 215 3.5 16:59:21 38° E 17:01:25 50° SE 17:07:43 10° SSW
BREEZE-M DEB (TANK) 4.3 17:02:36 10° W 17:03:26 21° W 17:03:26 21° W
Cosmos 1500 3.6 17:02:18 10° NNW 17:06:07 63° W 17:09:54 10° S
YAOGAN 1 2.5 17:09:19 66° NNE 17:09:19 66° NNE 17:13:09 10° N
Cosmos 1656 Rocket 3.7 17:05:48 10° NNW 17:11:28 77° WSW 17:17:00 10° SSE
USA 238 DEB 3.7 17:05:15 10° SSW 17:11:40 58° ESE 17:13:06 48° ENE
USA 238 3.7 17:05:21 10° SSW 17:11:46 57° ESE 17:13:10 48° E
MOS 1 Rocket 3.5 17:13:25 52° NE 17:14:38 68° E 17:19:59 10° S
Cosmos 158 Rocket 3.7 17:15:51 10° SSW 17:20:49 85° ESE 17:20:55 84° ENE
CZ-2C R/B 3.0 17:15:57 10° S 17:20:55 74° WSW 17:25:44 10° NNW
Cosmos 1934 Rocket 3.9 17:15:34 10° N 17:21:58 74° E 17:28:15 10° SSE
Cosmos 923 Rocket 3.9 17:18:59 10° SSW 17:24:12 88° WNW 17:24:50 70° NNE
COSMO-SKYMED 1 3.4 17:23:06 28° NNW 17:25:04 49° WNW 17:29:14 10° SW
Cosmos 1238 Rocket 3.4 17:21:11 10° NNW 17:25:08 64° W 17:29:55 10° S
USA 281 3.2 17:20:43 10° SSE 17:27:18 83° WSW 17:33:55 10° NNW
CSL-04 Debris 4.0 17:27:30 64° SE 17:28:20 81° ENE 17:33:51 10° NNW
Nadezhda 3 Rocket 4.2 17:24:08 10° SSW 17:30:29 72° W 17:36:52 10° N
X-37B 3.3 17:28:17 10° WSW 17:29:28 20° WSW 17:29:28 20° WSW
Helios 1A Rocket 4.0 17:33:25 41° NW 17:33:25 41° NW 17:36:25 10° NNW
Cosmos 2228 Rocket 3.7 17:29:18 10° SSW 17:33:44 54° WNW 17:34:29 48° NW
USA 267 3.1 17:34:11 64° E 17:35:15 78° NNE 17:41:49 10° NW
H-2A R/B 2.0 17:35:17 74° SSW 17:35:44 83° WSW 17:40:53 10° NNW
Cosmos 1812 4.2 17:33:56 10° SSW 17:36:36 34° WSW 17:36:36 34° WSW
CZ-4 R/B 2.7 17:41:26 37° WNW 17:41:26 37° WNW 17:44:38 10° NNW
Meteor 1-11 Rocket 3.9 17:35:16 10° NNW 17:41:02 72° W 17:46:54 10° S
CSL-04 Rocket 3.8 17:44:05 62° NNW 17:44:05 62° NNW 17:48:31 10° NNW
Cosmos 44 Rocket 4.2 17:39:13 10° NW 17:44:13 50° WSW 17:45:09 45° SSW
Lacrosse 4 Rocket 4.1 17:46:45 10° SSW 17:46:59 12° SSW 17:46:59 12° SSW
Cosmos 1680 Rocket 3.9 17:45:51 10° SSW 17:50:18 60° WSW 17:50:18 60° WSW
Cosmos 1943 4.0 17:53:43 10° SW 17:59:09 46° NW 17:59:58 44° NNW
ARGOS 4.4 18:08:32 35° NNW 18:08:32 35° NNW 18:11:39 10° NNW
CENTAUR R/B 3.0 18:03:26 10° SW 18:07:44 52° SW 18:07:44 52° SW
NOSS 3-2 (C) 4.4 18:11:50 10° SW 18:15:09 38° SW 18:15:09 38° SW
USA 215 4.1 18:46:43 44° W 18:46:43 44° W 18:51:04 10° WSW
